sat.trackr.live / text

‹ back to catalog

STARLINK-4029

NORAD 52685 · 2022-053AF

PAYLOAD ACTIVE UNKNOWN

§ Identity

Operator
Country
US
Launch date
2022-05-18
Launch site
AFETR
Launch vehicle
Mass (kg)
RCS (m²)

Purposes: comms

External: N2YO · Heavens-Above · Gunter

§ Orbital elements

Epoch: 2026-05-25T00:54:00.737856Z

Period
95.44 min
Inclination
53.2138°
Eccentricity
0.0001100
Mean motion
15.08838912 rev/d
Perigee alt
539.0 km
Apogee alt
540.5 km
Semi-major
6,917.9 km
B*
1.1606e-5
RAAN
161.3820°
Arg perigee
73.6056°
Mean anomaly
286.5057°
Rev number
22,264

§ Raw data

STARLINK-40291 52685U 22053AF  26145.03750854 -.00000103  00000+0  11606-4 0  99902 52685  53.2138 161.3820 0001100  73.6056 286.5057 15.08838912222644

JSON: /api/v1/satellites/52685 · /tle

For live sub-satellite position, see the globe view (requires WebGL).

§ Visibility from observer

Set your observer location to see the next 7 days of passes ≥ 10°. The values pass through the URL so the page stays shareable.

No JS? Fill the form by hand. The geolocation button needs JavaScript.